DW3845 Weather Reports


time (UTC)temp
C
wind
direction
speed
KPH
gust
KPH
rain 1hr
cm
rain 24hr
cm
rain mn
cm
humidity
%
barometer
mb
20260504204550 21 18 4.8 16.1 0.00 0.00 0.00 34 994.5
20260504203105 21 20 4.8 22.5 0.00 0.00 0.00 34 994.7
20260504201549 20 304 9.7 19.3 0.00 0.00 0.00 34 994.7
20260504200045 21 158 3.2 12.9 0.00 0.00 0.00 35 994.8
20260504194543 20 155 1.6 17.7 0.00 0.00 0.00 35 994.9
20260504193041 20 46 6.4 20.9 0.00 0.00 0.00 34 995.1
20260504191539 20 57 1.6 12.9 0.00 0.00 0.00 36 995.0
20260504190037 19 43 4.8 20.9 0.00 0.00 0.00 36 995.1
20260504184534 19 50 8.0 24.1 0.00 0.00 0.00 36 995.3
20260504183034 19 60 8.0 17.7 0.00 0.00 0.00 36 995.2
20260504181539 18 338 4.8 17.7 0.00 0.00 0.00 38 995.2
20260504180031 18 281 4.8 12.9 0.00 0.00 0.00 37 995.3
20260504174528 18 54 3.2 17.7 0.00 0.00 0.00 38 995.3
20260504173026 18 51 1.6 9.7 0.00 0.00 0.00 38 995.3
20260504171524 17 162 3.2 16.1 0.00 0.00 0.00 39 995.3
20260504081511 8 46 0.0 3.2 0.00 0.00 0.00 80 993.8
20260504044602 11 46 4.8 8.0 0.00 0.00 0.00 70 993.5
20260504043057 12 47 4.8 6.4 0.00 0.00 0.00 67 993.6
20260504041554 12 46 4.8 6.4 0.00 0.00 0.00 65 993.5
20260504040105 12 54 6.4 8.0 0.00 0.00 0.00 68 993.5
20260504034612 12 43 4.8 6.4 0.00 0.00 0.00 68 993.4
20260504033051 13 34 4.8 6.4 0.00 0.00 0.00 65 993.2
20260504031550 13 42 4.8 6.4 0.00 0.00 0.00 65 993.2
20260504030117 14 34 3.2 4.8 0.00 0.00 0.00 61 993.2
20260504024555 15 39 0.0 4.8 0.00 0.00 0.00 58 993.0
20260504023049 17 44 0.0 4.8 0.00 0.00 0.00 54 993.0
20260504021551 18 42 1.6 3.2 0.00 0.00 0.00 48 993.1
20260504020046 21 262 0.0 1.6 0.00 0.00 0.00 36 993.1
20260504014545 22 262 0.0 1.6 0.00 0.00 0.00 33 993.2
20260504013050 23 257 0.0 4.8 0.00 0.00 0.00 31 993.3
20260504011542 23 243 0.0 4.8 0.00 0.00 0.00 31 993.5
20260504010041 23 259 0.0 9.7 0.00 0.00 0.00 29 993.6
20260504004539 23 250 1.6 8.0 0.00 0.00 0.00 27 993.8
20260504003038 23 167 3.2 9.7 0.00 0.00 0.00 28 993.9
20260504001541 24 250 3.2 14.5 0.00 0.00 0.00 27 994.1
20260504000035 25 230 1.6 11.3 0.00 0.00 0.00 26 994.1
20260503234534 25 242 0.0 11.3 0.00 0.00 0.00 26 994.2
20260503233131 25 131 1.6 11.3 0.00 0.00 0.00 24 994.3
20260503231534 25 144 1.6 8.0 0.00 0.00 0.00 23 994.6
20260503230028 25 198 4.8 11.3 0.00 0.00 0.00 22 994.9
20260503224524 25 76 0.0 6.4 0.00 0.00 0.00 23 995.1
20260503223022 25 111 0.0 8.0 0.00 0.00 0.00 23 995.4
20260503221518 25 211 0.0 11.3 0.00 0.00 0.00 23 995.6
20260503220017 25 46 0.0 3.2 0.00 0.00 0.00 22 995.8
20260503214514 25 187 1.6 8.0 0.00 0.00 0.00 23 996.1
20260503213011 24 134 0.0 8.0 0.00 0.00 0.00 23 996.3
20260503211508 24 304 0.0 11.3 0.00 0.00 0.00 22 996.5
20260503210008 23 260 0.0 8.0 0.00 0.00 0.00 22 996.8